weather.gov     
National Weather Service

Regional Weather Roundup
NWS Homepage
This page is being discontinued on March 12, 2014.
The same data is available at this site. Please update your bookmarks.
Thank you, and we apologize for the inconvenience.
Please send an email to SR-SRH.Webmaster@noaa.gov with any concerns.


Current Version
Previous Version:    01  02  03  04  05  06  07  08  09  10  11  12  13  14  15  16  17  18  19  20  21  22  23  24  25  26  27  28  
[Printable]
782
ASUS44 KMOB 230410
RWRMOB
REGIONAL WEATHER ROUNDUP
NATIONAL WEATHER SERVICE MOBILE AL
1100 PM CDT MON SEP 22 2014

NOTE: "FAIR" INDICATES FEW OR NO CLOUDS BELOW 12,000 FEET WITH NO
      SIGNIFICANT WEATHER AND/OR OBSTRUCTIONS TO VISIBILITY.

  * THESE STATIONS ARE PART OF THE UNIVERSITY OF SOUTH ALABAMA
    MESONET AND ARE NOT UNDER NWS OR FAA QUALITY CONTROL.

ALZ061>064-230500-
COASTAL ALABAMA

CITY           SKY/WX    TMP DP  RH WIND       PRES   REMARKS
MOBILE REG APT CLEAR     67  56  67 N6        30.06S
BROOKLEY FIELD CLEAR     70  60  70 N8        30.06S
USA CAMPUS*      N/A     64  57  77 CALM      30.07R
DOG RIVER*     NOT AVBL


CITY           SKY/WX    TMP DP  RH WIND       PRES   REMARKS
MOUNT VERNON*    N/A     57  54  88 CALM      30.08R
SARALAND*      NOT AVBL
BAY MINETTE*   NOT AVBL
LOXLEY*        NOT AVBL
ROBERTSDALE*     N/A    N/A N/A N/A CALM      30.05R
FAIRHOPE*        N/A     64  63  94 CALM      30.04S
ELBERTA*         N/A     68  54  60 VRB5      30.04R
FOLEY*         NOT AVBL
GRAND BAY*       N/A     64  55  72 CALM      30.03R
DAUPHIN ISLND* NOT AVBL
BON SCOUR NWR* NOT AVBL
GULF SHORES    CLEAR     68  64  88 N5        30.04R

$$

ALZ051>060-230500-
INTERIOR SOUTHWEST AND SOUTH CENTRAL ALABAMA

CITY           SKY/WX    TMP DP  RH WIND       PRES   REMARKS
GREENVILLE     CLEAR     66  53  63 N6        30.08S
EVERGREEN      CLEAR     65  56  72 CALM      30.07S
CASTLEBERRY*   NOT AVBL
ATMORE*          N/A     66  55  68 N5        30.07S
DIXIE*         NOT AVBL
ANDALUSIA/OPP  CLEAR     70  58  65 NE5       30.06S
ANDALUSIA*     NOT AVBL
FLORALA APT    CLEAR     67  64  90 N3        30.07S
FLORALA*         N/A     64  63  94 CALM      30.03S

$$

FLZ001>006-230500-
WESTERN FLORIDA PANHANDLE

CITY           SKY/WX    TMP DP  RH WIND       PRES   REMARKS
PENSACOLA      CLEAR     70  67  90 NE3       30.04R
NAS PENSACOLA  CLEAR     72  65  78 N6        30.03S
MILTON         CLEAR     64  60  87 N3        30.05R
WHTNG S FIELD  CLEAR     67  62  84 N6        30.05R


CITY           SKY/WX    TMP DP  RH WIND       PRES   REMARKS
WALNUT HILL*   NOT AVBL
JAY*           NOT AVBL
DUKE FIELD     CLEAR     65  65 100 N6        30.04S
CRESTVIEW      CLEAR     64  63  96 CALM      30.06S FOG
VALPARAISO     CLEAR     69  66  92 N3        30.04R
DESTIN         CLEAR     73  66  78 N9        30.03S

$$

MSZ076-079-230500-
INTERIOR SOUTHEAST MISSISSIPPI

CITY           SKY/WX    TMP DP  RH WIND       PRES   REMARKS
LEAKESVILLE*   NOT AVBL
AGRICOLA*      NOT AVBL

$$

MARINE OBSERVATIONS

STATION/POSITION TIME  TEMP    WIND        PRES    WAVE
                       AIR SEA DIR/SP/G            HT/PER
                 (UTC) (F)     (DEG/KT/KT) (MB)    (FT/S)
PASCAGOULA       0400   75      30/  6/  8 1017.2R
PETIT BOIS ISLND 0400   80      30/ 17/ 21 1017.2S
GRAND BAY        0300   73      20/  6     1018.0S
KATRINA CUT      0300   80      40/ 12     1017.3S
CEDAR POINT      0300   79      70/ 11     1016.9F
E DAUPHIN ISLAND 0300   80      60/ 12/ 14 1016.8R
MIDDLE BAY LIGHT 0300   78      40/ 13     1016.6F
USCG MOBILE BAY  0400      85              1016.6S
STATE DOCKS      0400   72 86              1017.6R
MEAHER PARK      0300   73      20/  2     1017.6R
WEEKS BAY        0300   68                   N/A
FORT MORGAN      0400   78      70/ 14/ 16 1016.6R
12 S ORANGE BCH  0400   81 85   50/ 17/ 21 1016.5F   3/ 4
PENSACOLA BAY    0400   76 84   40/  6/ 10 1017.2F
64 S DAUPHIN ISL 0343   81 84   50/ 21/ 25 1016.1F   2/ 3
67 S FORT MORGAN 0300   81                 1015.6S

$$

SELECTED LOCATIONS ACROSS THE REGION

CITY           SKY/WX    TMP DP  RH WIND       PRES   REMARKS
NEW ORLEANS    CLEAR     79  56  45 NE20G28   30.05R
GULFPORT       CLEAR     71  54  54 N9        30.05R
PASCAGOULA AP  CLEAR     64  58  80 N5        30.05R
PASCAGOULA*    NOT AVBL
HATTIESBURG    CLEAR     70  53  54 N6        30.10R
LAUREL         CLEAR    N/A N/A N/A N9        30.11S
MERIDIAN       CLEAR     64  53  67 N7        30.12R
JACKSON        CLEAR     69  54  58 N7        30.14R
MONTGOMERY     CLEAR     67  54  63 N6        30.09R
TROY           CLEAR     61  58  90 N3        30.09R
KINSTON*       NOT AVBL
GENEVA*          N/A     64  63  94 VRB3      30.07S
ASHFORD*       NOT AVBL
DOTHAN         CLEAR     63  62  97 NE5       30.09S
PANAMA CITY    CLEAR     68  65  90 N3        30.02S

$$





U.S. Dept. of Commerce
NOAA National Weather Service
1325 East West Highway
Silver Spring, MD 20910
E-mail: w-nws.webmaster@noaa.gov
Page last modified: May 16, 2007
NATIONAL WEATHER SERVICE: for Safety, for Work, for Fun - FOR LIFE